#ZEITBEREICH: 07.05.2023 bis 07.05.2024
Datum;Zeit;BOTT F AM1H [%];BOTT NO AM1H [�g/m�];BOTT NO2 AM1H [�g/m�];BOTT O3 AM1H [�g/m�];BOTT PM10F GM24H [�g/m�];BOTT SO2 AM1H [�g/m�];BOTT T AM1H [�C];BOTT WG SM1H [m/s];BOTT WR VM1H [�]
07.05.2023;01:00;89,6;<7;20;33;12;<10;14,7;0,7;17
07.05.2023;02:00;91,7;<7;21;27;12;<10;14,3;1,2;35
07.05.2023;03:00;92,9;<7;19;;12;<10;14,1;1,1;57
07.05.2023;04:00;93,1;<7;18;23;12;<10;14,0;1,2;68
07.05.2023;05:00;94,5;<7;13;20;12;<10;13,6;0,9;35
07.05.2023;06:00;95,1;<7;13;18;12;<10;13,5;1,0;64
07.05.2023;07:00;92,0;<7;20;16;12;<10;14,3;1,2;82
07.05.2023;08:00;83,1;10;24;18;12;11;16,0;1,9;70
07.05.2023;09:00;79,7;<7;14;30;11;<10;16,9;2,3;66
07.05.2023;10:00;74,7;<7;16;35;11;<10;18,0;2,1;78
07.05.2023;11:00;69,2;<7;14;37;11;<10;19,9;2,5;44
07.05.2023;12:00;63,2;<7;11;50;12;<10;20,9;2,5;56
07.05.2023;13:00;56,0;<7;10;69;12;<10;21,8;2,6;82
07.05.2023;14:00;56,0;<7;<10;74;12;<10;21,8;2,6;53
07.05.2023;15:00;61,9;<7;<10;73;12;<10;20,4;2,7;79
07.05.2023;16:00;83,1;<7;12;60;12;<10;17,7;2,1;88
07.05.2023;17:00;83,8;<7;11;53;13;<10;18,4;1,2;31
07.05.2023;18:00;79,3;<7;12;50;13;<10;19,2;1,5;53
07.05.2023;19:00;85,5;<7;14;34;13;<10;18,6;0,7;
07.05.2023;20:00;90,2;<7;19;18;13;<10;17,9;0,9;359
07.05.2023;21:00;87,9;<7;15;29;14;<10;17,3;0,9;57
07.05.2023;22:00;83,6;<7;16;36;14;<10;17,0;1,7;71
07.05.2023;23:00;80,0;;;38;14;;16,4;2,0;70
07.05.2023;24:00;79,3;<7;14;38;14;<10;15,6;1,9;70
08.05.2023;01:00;81,7;<7;15;33;14;<10;15,0;1,2;51
08.05.2023;02:00;85,4;<7;13;27;14;<10;14,3;0,8;29
08.05.2023;03:00;85,7;<7;14;27;14;<10;13,8;1,1;52
08.05.2023;04:00;87,7;<7;19;;14;<10;13,2;1,1;69
08.05.2023;05:00;90,7;<7;24;9;14;<10;12,5;0,7;
08.05.2023;06:00;92,3;9;23;<4;15;<10;12,1;0,7;1
08.05.2023;07:00;87,8;16;27;6;15;<10;13,2;0,7;
08.05.2023;08:00;86,3;27;29;6;15;<10;14,4;1,3;103
08.05.2023;09:00;83,5;26;29;9;16;<10;16,1;0,9;
08.05.2023;10:00;72,6;<7;18;42;16;<10;18,9;2,1;196
08.05.2023;11:00;71,5;<7;13;50;16;<10;19,5;2,6;212
08.05.2023;12:00;70,3;<7;<10;60;16;11;19,2;2,8;184
08.05.2023;13:00;67,7;<7;10;66;16;<10;19,4;2,3;162
08.05.2023;14:00;67,6;<7;17;52;16;<10;20,0;1,6;177
08.05.2023;15:00;66,0;<7;12;64;16;<10;20,2;1,4;114
08.05.2023;16:00;60,3;<7;<10;75;16;<10;21,5;2,5;148
08.05.2023;17:00;59,6;<7;<10;72;16;<10;21,4;3,5;153
08.05.2023;18:00;62,5;<7;<10;72;15;<10;20,4;3,1;137
08.05.2023;19:00;68,6;<7;11;63;15;<10;19,4;2,8;166
08.05.2023;20:00;74,6;<7;12;53;15;<10;18,6;2,2;164
08.05.2023;21:00;75,5;<7;16;51;15;<10;18,1;2,2;162
08.05.2023;22:00;79,9;<7;29;37;15;<10;17,1;1,8;147
08.05.2023;23:00;81,4;<7;25;39;15;<10;16,6;1,7;146
08.05.2023;24:00;85,0;;;36;15;;15,8;1,3;133
09.05.2023;01:00;89,0;<7;13;32;14;<10;14,9;1,5;136
09.05.2023;02:00;91,3;<7;13;25;14;<10;14,2;1,3;133
09.05.2023;03:00;93,0;<7;13;17;14;<10;13,7;0,4;
09.05.2023;04:00;88,1;<7;13;33;14;<10;15,0;2,9;166
09.05.2023;05:00;86,6;<7;13;;14;<10;15,6;3,1;171
09.05.2023;06:00;88,6;<7;22;18;15;<10;15,5;2,4;178
09.05.2023;07:00;89,6;<7;25;14;16;<10;15,5;2,1;187
09.05.2023;08:00;85,8;<7;21;19;17;<10;16,2;2,4;174
09.05.2023;09:00;78,3;<7;11;31;17;<10;18,1;3,7;174
09.05.2023;10:00;70,9;<7;13;38;17;16;19,5;4,0;190
09.05.2023;11:00;63,9;10;21;46;18;24;20,6;3,8;196
09.05.2023;12:00;59,6;;;;18;;20,9;3,8;204
09.05.2023;13:00;57,8;;;;18;;21,3;3,7;194
09.05.2023;14:00;56,0;<7;11;69;18;18;21,5;3,8;175
09.05.2023;15:00;59,3;<7;16;60;19;14;21,2;4,0;223
09.05.2023;16:00;80,8;<7;20;37;19;18;17,9;2,8;271
09.05.2023;17:00;89,0;<7;15;40;19;<10;16,5;2,5;263
09.05.2023;18:00;93,2;<7;19;33;19;<10;15,7;1,9;297
09.05.2023;19:00;94,1;<7;20;30;19;<10;15,4;1,5;297
09.05.2023;20:00;94,9;<7;17;35;19;<10;14,5;1,5;257
09.05.2023;21:00;95,7;<7;20;30;19;<10;14,1;1,1;251
09.05.2023;22:00;96,3;<7;19;32;18;<10;13,9;1,5;234
09.05.2023;23:00;96,5;<7;15;36;18;<10;13,5;1,9;242
09.05.2023;24:00;96,9;<7;11;35;18;<10;13,4;2,1;225
10.05.2023;01:00;97,1;<7;17;26;18;<10;13,3;2,8;244
10.05.2023;02:00;96,9;<7;11;33;17;<10;13,2;2,6;255
10.05.2023;03:00;96,6;<7;<10;52;17;<10;12,8;2,1;265
10.05.2023;04:00;96,9;<7;<10;54;17;<10;12,5;1,9;250
10.05.2023;05:00;97,3;<7;19;39;16;<10;12,5;1,7;224
10.05.2023;06:00;97,3;<7;22;32;15;<10;12,8;2,1;246
10.05.2023;07:00;96,6;<7;23;30;14;<10;13,1;2,5;248
10.05.2023;08:00;94,3;<7;21;32;12;<10;13,6;2,9;246
10.05.2023;09:00;90,0;<7;20;36;13;<10;14,5;2,9;240
10.05.2023;10:00;88,7;<7;20;35;13;<10;14,6;2,6;240
10.05.2023;11:00;82,4;<7;17;41;13;<10;15,6;3,2;237
10.05.2023;12:00;80,7;<7;17;45;13;<10;15,2;3,5;244
10.05.2023;13:00;83,0;<7;22;43;13;<10;14,8;2,9;243
10.05.2023;14:00;79,6;;;49;13;;15,4;2,8;245
10.05.2023;15:00;67,7;<7;17;61;13;19;17,5;3,5;243
10.05.2023;16:00;63,8;<7;20;66;13;16;18,3;2,7;250
10.05.2023;17:00;65,4;<7;18;68;13;13;17,7;2,5;277
10.05.2023;18:00;78,9;<7;13;62;13;<10;15,7;3,2;286
10.05.2023;19:00;87,0;<7;15;53;13;<10;14,5;2,1;263
10.05.2023;20:00;88,1;<7;15;50;13;<10;14,3;1,3;251
10.05.2023;21:00;91,0;<7;29;32;13;<10;13,7;1,3;246
10.05.2023;22:00;92,7;<7;24;30;14;<10;13,5;1,1;233
10.05.2023;23:00;94,5;<7;35;;14;<10;13,1;1,0;221
10.05.2023;24:00;94,9;<7;30;16;15;<10;13,0;1,4;237
11.05.2023;01:00;94,6;<7;28;16;15;<10;12,9;1,4;233
11.05.2023;02:00;94,3;<7;24;20;15;<10;12,9;1,5;223
11.05.2023;03:00;94,1;<7;23;19;16;<10;12,9;1,7;234
11.05.2023;04:00;94,0;<7;20;22;17;<10;12,8;2,0;227
11.05.2023;05:00;93,6;<7;17;31;17;<10;12,6;1,9;255
11.05.2023;06:00;93,7;<7;18;26;18;<10;12,6;1,1;262
11.05.2023;07:00;91,9;<7;25;22;18;<10;13,1;1,3;236
11.05.2023;08:00;86,8;<7;24;28;18;<10;14,0;1,9;241
11.05.2023;09:00;79,9;<7;23;32;18;<10;15,2;1,9;226
11.05.2023;10:00;76,5;<7;17;47;18;<10;15,6;1,9;277
11.05.2023;11:00;76,2;<7;13;52;18;<10;15,6;2,1;292
11.05.2023;12:00;71,0;<7;<10;65;17;<10;16,1;2,0;287
11.05.2023;13:00;82,3;<7;25;38;18;<10;15,3;1,9;246
11.05.2023;14:00;77,2;<7;<10;58;17;<10;16,1;2,1;284
11.05.2023;15:00;68,9;;;68;17;<10;17,3;2,9;310
11.05.2023;16:00;74,2;<7;10;68;17;12;16,1;2,8;39
11.05.2023;17:00;79,4;<7;10;65;17;<10;15,7;2,1;34
11.05.2023;18:00;80,1;<7;12;60;17;<10;15,7;1,4;31
11.05.2023;19:00;90,4;<7;14;49;17;<10;14,6;1,6;6
11.05.2023;20:00;93,5;<7;11;46;16;<10;14,2;1,6;30
11.05.2023;21:00;95,0;<7;15;34;16;<10;13,9;1,3;11
11.05.2023;22:00;95,0;<7;<10;45;16;<10;13,6;1,8;345
11.05.2023;23:00;95,8;<7;<10;41;16;<10;13,5;1,8;341
11.05.2023;24:00;96,0;<7;<10;;16;<10;13,5;2,5;331
12.05.2023;01:00;96,2;<7;<10;36;16;<10;13,3;3,1;331
12.05.2023;02:00;96,1;<7;<10;34;15;<10;13,5;3,0;11
12.05.2023;03:00;94,8;<7;<10;35;15;<10;13,7;3,7;47
12.05.2023;04:00;94,2;<7;18;23;14;<10;13,7;3,1;81
12.05.2023;05:00;94,2;<7;20;19;14;<10;13,3;2,7;69
12.05.2023;06:00;92,5;<7;24;17;13;<10;13,2;3,0;72
12.05.2023;07:00;87,9;<7;24;23;13;<10;13,6;2,9;82
12.05.2023;08:00;83,2;<7;19;29;12;<10;14,3;3,3;74
12.05.2023;09:00;82,7;<7;18;32;12;<10;14,1;3,4;70
12.05.2023;10:00;80,0;<7;15;34;11;<10;14,7;3,2;71
12.05.2023;11:00;71,6;<7;14;47;11;<10;16,3;3,1;74
12.05.2023;12:00;64,8;<7;16;53;10;<10;17,8;3,3;76
12.05.2023;13:00;62,7;<7;10;62;<10;<10;18,6;2,9;56
12.05.2023;14:00;61,2;<7;<10;74;<10;<10;19,2;3,3;39
12.05.2023;15:00;58,0;<7;<10;84;<10;<10;20,3;2,8;40
12.05.2023;16:00;57,0;;;95;<10;<10;19,8;4,4;46
12.05.2023;17:00;80,9;<7;13;71;10;12;16,2;1,8;46
12.05.2023;18:00;79,2;<7;20;59;10;<10;16,8;2,0;315
12.05.2023;19:00;78,6;<7;26;51;11;<10;16,9;2,1;335
12.05.2023;20:00;83,8;<7;27;37;11;<10;16,1;2,1;333
12.05.2023;21:00;87,8;<7;27;28;12;<10;15,0;1,8;329
12.05.2023;22:00;91,2;<7;25;21;13;<10;14,1;2,4;331
12.05.2023;23:00;93,2;<7;24;15;13;<10;12,7;1,0;338
12.05.2023;24:00;96,1;<7;20;9;14;<10;11,6;0,7;
13.05.2023;01:00;95,7;<7;21;;14;<10;11,1;0,7;
13.05.2023;02:00;94,7;<7;18;10;15;<10;10,7;1,5;341
13.05.2023;03:00;95,1;<7;14;13;15;<10;10,2;1,4;327
13.05.2023;04:00;95,7;<7;16;10;16;<10;9,5;1,2;329
13.05.2023;05:00;96,1;<7;18;4;16;<10;9,0;1,5;328
13.05.2023;06:00;95,0;<7;20;8;17;<10;9,2;1,7;336
13.05.2023;07:00;86,1;<7;22;19;17;<10;11,8;1,2;15
13.05.2023;08:00;67,9;<7;19;43;18;<10;15,8;1,4;61
13.05.2023;09:00;63,4;<7;23;47;18;<10;16,8;2,1;69
13.05.2023;10:00;55,9;<7;15;63;19;<10;19,4;1,8;32
13.05.2023;11:00;44,9;<7;<10;92;19;<10;21,7;3,6;36
13.05.2023;12:00;42,0;<7;<10;103;19;<10;22,5;4,0;40
13.05.2023;13:00;39,0;<7;<10;108;20;<10;23,1;4,4;34
13.05.2023;14:00;36,4;<7;<10;111;20;<10;23,4;3,9;39
13.05.2023;15:00;36,5;<7;<10;111;20;<10;23,2;3,5;33
13.05.2023;16:00;36,6;<7;<10;111;20;<10;22,9;3,4;34
13.05.2023;17:00;48,6;;;100;21;<10;19,6;3,5;97
13.05.2023;18:00;52,2;<7;12;93;20;<10;19,0;2,5;53
13.05.2023;19:00;55,8;<7;<10;91;20;<10;18,4;1,9;7
13.05.2023;20:00;60,9;<7;22;69;20;<10;17,0;1,1;82
13.05.2023;21:00;76,0;<7;25;42;20;<10;14,2;1,3;325
13.05.2023;22:00;84,1;<7;34;20;20;<10;12,7;1,2;337
13.05.2023;23:00;89,6;<7;35;8;20;<10;11,9;0,6;337
13.05.2023;24:00;91,8;<7;31;<4;20;<10;11,8;0,3;
14.05.2023;01:00;94,0;<7;25;<4;20;<10;10,8;1,0;331
14.05.2023;02:00;95,3;<7;24;;20;<10;9,8;0,3;
14.05.2023;03:00;95,6;<7;19;<4;20;<10;9,2;0,7;333
14.05.2023;04:00;95,8;8;23;<4;20;<10;8,9;1,3;340
14.05.2023;05:00;95,8;9;19;<4;20;<10;8,3;0,9;333
14.05.2023;06:00;96,0;12;14;<4;20;<10;8,3;0,5;
14.05.2023;07:00;89,6;9;20;8;20;<10;10,7;0,5;
14.05.2023;08:00;73,7;11;27;23;21;<10;14,8;1,2;73
14.05.2023;09:00;59,3;<7;22;50;20;<10;17,7;1,9;75
14.05.2023;10:00;51,1;<7;20;59;20;11;19,9;1,6;64
14.05.2023;11:00;43,8;<7;<10;83;20;<10;21,3;2,5;46
14.05.2023;12:00;41,6;<7;<10;89;20;<10;21,5;2,9;42
14.05.2023;13:00;36,9;<7;<10;101;19;<10;22,3;2,9;46
14.05.2023;14:00;36,1;<7;<10;103;19;<10;22,3;3,7;10
14.05.2023;15:00;38,1;<7;<10;101;19;<10;21,9;3,1;26
14.05.2023;16:00;39,3;<7;<10;101;19;<10;21,9;2,8;39
14.05.2023;17:00;38,0;<7;<10;101;19;<10;21,7;3,0;6
14.05.2023;18:00;39,2;;;99;19;<10;21,5;3,5;356
14.05.2023;19:00;41,5;<7;<10;100;19;<10;20,5;2,3;5
14.05.2023;20:00;46,8;<7;14;85;19;<10;19,3;1,5;358
14.05.2023;21:00;56,3;<7;22;64;19;<10;17,4;1,5;4
14.05.2023;22:00;66,0;<7;26;47;18;<10;15,8;1,0;329
14.05.2023;23:00;73,5;<7;27;33;18;<10;14,6;1,4;351
14.05.2023;24:00;72,2;<7;20;46;17;<10;14,8;2,5;315
15.05.2023;01:00;83,5;<7;10;49;17;<10;14,0;2,2;327
15.05.2023;02:00;90,9;<7;<10;42;17;<10;13,3;1,5;316
15.05.2023;03:00;94,6;<7;<10;;17;<10;12,6;1,1;265
15.05.2023;04:00;93,3;<7;<10;36;17;<10;12,9;1,8;297
15.05.2023;05:00;90,3;<7;<10;42;17;<10;12,3;2,1;296
15.05.2023;06:00;91,0;<7;<10;44;17;<10;11,7;2,0;298
15.05.2023;07:00;91,1;<7;15;38;17;<10;11,8;1,9;277
15.05.2023;08:00;85,9;<7;16;40;17;<10;12,8;2,1;269
15.05.2023;09:00;74,6;<7;15;55;18;<10;14,5;2,6;280
15.05.2023;10:00;67,5;<7;11;64;18;<10;16,2;2,8;293
15.05.2023;11:00;60,2;<7;<10;80;18;<10;17,7;2,7;297
15.05.2023;12:00;54,9;;;94;18;<10;18,7;2,8;291
15.05.2023;13:00;50,6;;;98;19;<10;20,0;3,4;276
15.05.2023;14:00;45,0;<7;<10;110;19;<10;20,8;3,8;289
15.05.2023;15:00;46,0;<7;<10;111;19;<10;20,7;4,4;300
15.05.2023;16:00;50,3;<7;<10;98;20;<10;19,9;5,2;305
15.05.2023;17:00;56,9;<7;<10;85;20;<10;18,6;4,5;306
15.05.2023;18:00;58,1;<7;<10;82;20;<10;17,7;4,7;299
15.05.2023;19:00;66,3;<7;11;73;20;<10;16,5;4,0;297
15.05.2023;20:00;78,0;<7;11;66;21;<10;14,7;3,9;311
15.05.2023;21:00;78,9;<7;<10;67;20;<10;13,9;3,5;311
15.05.2023;22:00;76,0;<7;<10;65;20;<10;13,6;3,7;308
15.05.2023;23:00;77,5;<7;<10;64;20;<10;13,2;3,1;303
15.05.2023;24:00;86,8;<7;<10;65;19;<10;12,1;4,1;315
16.05.2023;01:00;92,8;<7;<10;61;19;<10;10,8;4,3;333
16.05.2023;02:00;92,3;<7;<10;63;18;<10;10,2;4,6;333
16.05.2023;03:00;90,7;<7;<10;70;17;<10;9,3;4,4;335
16.05.2023;04:00;89,5;<7;<10;;17;<10;9,0;3,6;332
16.05.2023;05:00;86,0;<7;<10;59;16;<10;8,5;4,0;332
16.05.2023;06:00;89,2;<7;<10;47;16;<10;7,7;2,4;318
16.05.2023;07:00;83,8;<7;<10;47;15;<10;8,5;3,2;330
16.05.2023;08:00;;<7;<10;56;15;<10;;;
16.05.2023;09:00;;<7;<10;65;14;<10;;;
16.05.2023;10:00;;<7;<10;69;13;<10;;;
16.05.2023;11:00;52,5;<7;<10;70;13;<10;13,2;3,9;331
16.05.2023;12:00;55,9;<7;<10;68;12;<10;13,4;3,8;312
16.05.2023;13:00;56,0;<7;<10;70;12;<10;14,3;4,2;299
16.05.2023;14:00;50,6;;;74;11;<10;14,9;4,7;312
16.05.2023;15:00;44,9;<7;<10;77;11;<10;15,6;4,6;328
16.05.2023;16:00;48,6;<7;<10;76;<10;<10;14,4;4,8;320
16.05.2023;17:00;54,5;<7;<10;69;<10;<10;13,6;4,9;326
16.05.2023;18:00;57,6;<7;<10;69;<10;<10;13,6;3,9;321
16.05.2023;19:00;60,5;<7;<10;67;<10;<10;13,0;3,6;323
16.05.2023;20:00;61,7;<7;<10;66;<10;<10;12,2;3,2;317
16.05.2023;21:00;67,0;<7;<10;64;<10;<10;11,5;1,8;322
16.05.2023;22:00;74,5;<7;<10;56;<10;<10;10,8;2,0;333
16.05.2023;23:00;83,6;<7;<10;47;<10;<10;9,4;1,3;299
16.05.2023;24:00;89,2;<7;<10;38;<10;<10;7,7;0,7;298
17.05.2023;01:00;91,7;<7;<10;32;<10;<10;6,9;0,9;306
17.05.2023;02:00;92,8;<7;<10;34;<10;<10;6,7;1,5;298
17.05.2023;03:00;92,1;<7;<10;39;<10;<10;6,7;1,5;285
17.05.2023;04:00;93,5;<7;<10;28;<10;<10;6,3;1,1;289
17.05.2023;05:00;93,7;<7;14;;<10;<10;7,0;1,0;293
17.05.2023;06:00;91,1;<7;17;;<10;<10;8,3;1,8;319
17.05.2023;07:00;84,2;<7;13;39;<10;<10;9,4;2,1;327
17.05.2023;08:00;69,8;<7;<10;61;<10;<10;11,2;3,9;359
17.05.2023;09:00;64,1;<7;<10;62;<10;<10;11,3;3,5;338
17.05.2023;10:00;58,7;<7;<10;68;<10;<10;11,9;3,8;343
17.05.2023;11:00;51,1;<7;<10;68;<10;<10;13,7;4,0;359
17.05.2023;12:00;48,9;<7;<10;70;<10;<10;13,9;4,4;330
17.05.2023;13:00;45,0;<7;<10;73;<10;<10;14,6;4,4;334
17.05.2023;14:00;44,5;<7;<10;74;<10;<10;15,1;4,2;342
17.05.2023;15:00;42,3;;;78;<10;<10;15,5;3,7;342
17.05.2023;16:00;41,9;<7;<10;82;<10;<10;15,6;2,9;13
17.05.2023;17:00;41,7;<7;<10;85;<10;<10;15,5;3,3;2
17.05.2023;18:00;42,3;<7;<10;85;<10;<10;15,5;3,5;3
17.05.2023;19:00;44,1;<7;<10;82;<10;<10;14,7;3,1;2
17.05.2023;20:00;47,4;<7;<10;80;10;<10;13,5;2,3;32
17.05.2023;21:00;53,1;<7;<10;74;11;<10;11,8;1,8;37
17.05.2023;22:00;58,3;<7;11;67;11;<10;10,6;2,0;30
17.05.2023;23:00;62,1;<7;<10;65;11;<10;9,5;1,9;31
17.05.2023;24:00;65,5;<7;<10;62;11;<10;8,5;1,8;33
18.05.2023;01:00;68,0;<7;<10;65;12;<10;7,8;1,8;37
18.05.2023;02:00;72,0;<7;<10;60;12;<10;7,0;1,6;39
18.05.2023;03:00;76,1;<7;<10;54;12;<10;6,4;1,3;33
18.05.2023;04:00;81,1;<7;<10;47;12;<10;5,5;1,2;9
18.05.2023;05:00;84,2;<7;<10;41;12;<10;4,8;1,0;17
18.05.2023;06:00;80,6;<7;<10;43;12;<10;5,5;1,5;48
18.05.2023;07:00;72,0;<7;13;;12;<10;7,4;2,1;53
18.05.2023;08:00;62,6;<7;15;50;12;<10;9,9;2,3;63
18.05.2023;09:00;57,4;<7;15;53;12;<10;11,5;2,8;71
18.05.2023;10:00;52,5;<7;<10;69;12;<10;12,7;3,8;48
18.05.2023;11:00;50,3;<7;<10;77;12;<10;13,5;3,1;49
18.05.2023;12:00;49,2;<7;<10;79;12;<10;14,2;3,0;35
18.05.2023;13:00;47,9;<7;<10;81;12;<10;15,0;2,9;47
18.05.2023;14:00;45,3;<7;<10;84;12;<10;15,7;3,7;45
18.05.2023;15:00;43,7;<7;<10;86;12;<10;16,4;3,8;40
18.05.2023;16:00;43,5;;;88;12;<10;16,5;3,5;48
18.05.2023;17:00;43,5;<7;<10;89;12;<10;16,7;3,6;44
18.05.2023;18:00;43,3;<7;<10;91;11;<10;16,7;3,5;39
18.05.2023;19:00;44,6;<7;<10;91;11;<10;16,2;3,2;41
18.05.2023;20:00;47,6;<7;<10;88;11;<10;15,2;2,7;43
18.05.2023;21:00;53,2;<7;<10;79;11;<10;13,6;2,1;35
18.05.2023;22:00;57,4;<7;<10;75;11;<10;12,4;1,9;36
18.05.2023;23:00;61,1;<7;<10;69;11;<10;11,4;1,7;22
18.05.2023;24:00;62,3;<7;<10;68;11;<10;10,8;2,1;40
19.05.2023;01:00;64,2;<7;<10;64;11;<10;10,4;2,1;44
19.05.2023;02:00;68,3;<7;<10;59;11;<10;9,5;1,7;37
19.05.2023;03:00;76,4;<7;<10;48;11;<10;8,0;1,4;6
19.05.2023;04:00;82,7;<7;17;31;11;<10;6,6;1,4;350
19.05.2023;05:00;87,7;<7;18;23;11;<10;5,7;0,8;15
19.05.2023;06:00;84,1;<7;23;22;11;<10;6,6;1,2;21
19.05.2023;07:00;70,8;<7;21;39;11;<10;9,6;1,9;51
19.05.2023;08:00;60,6;8;25;38;11;13;12,6;1,9;60
19.05.2023;09:00;53,3;<7;20;47;12;12;14,9;2,3;64
19.05.2023;10:00;47,6;<7;13;59;12;<10;16,9;2,8;58
19.05.2023;11:00;43,3;<7;<10;75;12;<10;17,6;3,8;48
19.05.2023;12:00;41,4;<7;<10;84;12;<10;18,2;4,0;55
19.05.2023;13:00;40,2;<7;<10;89;11;<10;18,9;4,0;49
19.05.2023;14:00;38,3;<7;<10;93;11;<10;19,5;3,9;74
19.05.2023;15:00;37,4;<7;<10;99;11;<10;20,2;4,0;41
19.05.2023;16:00;37,1;<7;<10;102;11;<10;20,3;3,9;46
19.05.2023;17:00;37,8;;;103;11;<10;20,0;4,2;49
19.05.2023;18:00;37,4;<7;<10;105;11;<10;19,8;4,4;44
19.05.2023;19:00;37,8;<7;<10;104;11;<10;19,5;3,8;43
19.05.2023;20:00;40,0;<7;<10;99;11;<10;18,5;3,8;38
19.05.2023;21:00;44,9;<7;<10;92;11;<10;16,8;2,5;31
19.05.2023;22:00;50,0;<7;<10;83;11;<10;15,4;2,2;27
19.05.2023;23:00;53,7;<7;10;;11;<10;14,4;2,0;27
19.05.2023;24:00;57,9;<7;11;72;11;<10;13,4;1,6;26
20.05.2023;01:00;59,4;<7;<10;71;11;<10;13,1;1,8;30
20.05.2023;02:00;63,4;<7;<10;65;11;<10;12,2;1,8;24
20.05.2023;03:00;64,8;<7;<10;63;11;<10;12,1;2,1;24
20.05.2023;04:00;67,7;<7;<10;60;11;<10;11,7;2,3;31
20.05.2023;05:00;70,0;<7;<10;57;11;<10;11,6;2,6;45
20.05.2023;06:00;70,1;<7;<10;55;11;<10;11,9;2,8;45
20.05.2023;07:00;65,7;<7;<10;57;11;<10;13,4;3,3;52
20.05.2023;08:00;59,3;<7;<10;61;11;<10;15,5;4,6;54
20.05.2023;09:00;60,5;<7;<10;65;11;<10;15,5;4,8;55
20.05.2023;10:00;62,1;<7;<10;62;10;<10;15,5;4,7;57
20.05.2023;11:00;61,2;<7;<10;62;10;<10;16,1;4,9;54
20.05.2023;12:00;62,0;<7;<10;64;11;<10;16,2;4,4;56
20.05.2023;13:00;60,5;<7;<10;69;11;<10;17,5;3,9;52
20.05.2023;14:00;55,8;<7;<10;80;11;<10;19,3;4,2;54
20.05.2023;15:00;53,9;<7;<10;86;11;<10;19,3;4,5;55
20.05.2023;16:00;52,8;<7;<10;87;11;<10;19,5;4,7;52
20.05.2023;17:00;53,7;<7;<10;86;11;<10;19,2;5,2;52
20.05.2023;18:00;54,9;;;84;11;<10;18,8;4,8;55
20.05.2023;19:00;58,9;<7;<10;81;11;<10;17,7;4,2;54
20.05.2023;20:00;61,5;<7;<10;76;11;<10;17,2;3,4;56
20.05.2023;21:00;64,1;<7;<10;73;11;<10;16,7;3,4;53
20.05.2023;22:00;67,8;<7;<10;66;11;<10;15,9;2,7;48
20.05.2023;23:00;71,9;<7;<10;60;11;<10;15,0;2,1;35
20.05.2023;24:00;75,7;<7;<10;;11;<10;14,3;1,9;34
21.05.2023;01:00;77,7;<7;<10;55;11;<10;13,9;1,7;21
21.05.2023;02:00;79,9;<7;<10;52;12;<10;13,3;1,8;23
21.05.2023;03:00;79,9;<7;<10;53;12;<10;13,3;2,1;29
21.05.2023;04:00;81,7;<7;<10;50;12;<10;12,9;1,5;26
21.05.2023;05:00;83,5;<7;<10;47;12;<10;12,6;1,6;27
21.05.2023;06:00;84,0;<7;<10;43;12;<10;12,6;1,5;31
21.05.2023;07:00;82,2;<7;<10;43;12;<10;13,4;1,9;36
21.05.2023;08:00;79,3;<7;<10;44;12;<10;14,4;2,4;37
21.05.2023;09:00;73,4;<7;<10;47;12;<10;16,3;2,8;45
21.05.2023;10:00;68,4;<7;<10;52;13;<10;18,3;2,7;39
21.05.2023;11:00;65,6;<7;<10;60;13;<10;19,3;3,6;54
21.05.2023;12:00;63,4;<7;<10;66;13;<10;20,6;3,3;22
21.05.2023;13:00;61,5;<7;<10;71;13;<10;21,6;3,2;32
21.05.2023;14:00;60,6;<7;<10;73;14;<10;22,2;3,1;59
21.05.2023;15:00;60,5;<7;<10;79;14;<10;22,7;3,4;60
21.05.2023;16:00;57,2;<7;<10;85;15;<10;23,8;3,3;49
21.05.2023;17:00;56,3;<7;<10;91;15;<10;24,1;3,2;35
21.05.2023;18:00;57,5;<7;<10;95;15;<10;24,1;3,3;38
21.05.2023;19:00;60,4;;;89;16;<10;23,7;3,0;21
21.05.2023;20:00;63,0;<7;10;86;16;<10;23,0;2,6;9
21.05.2023;21:00;66,3;<7;<10;83;17;<10;22,1;;
21.05.2023;22:00;79,2;<7;13;65;17;<10;20,3;1,6;32
21.05.2023;23:00;86,6;<7;12;59;18;<10;18,3;1,7;37
21.05.2023;24:00;87,8;<7;10;59;18;<10;17,7;1,7;356
22.05.2023;01:00;90,9;<7;<10;;18;<10;17,1;1,8;286
22.05.2023;02:00;92,6;<7;10;42;18;10;16,9;1,7;348
22.05.2023;03:00;92,6;<7;<10;38;18;<10;16,3;1,7;339
22.05.2023;04:00;94,5;<7;<10;33;18;<10;15,7;1,2;35
22.05.2023;05:00;95,9;<7;13;28;19;<10;15,2;0,8;317
22.05.2023;06:00;96,4;<7;19;14;19;<10;15,1;0,3;
22.05.2023;07:00;93,0;10;24;13;19;<10;16,2;0,1;
22.05.2023;08:00;82,8;<7;24;33;19;<10;18,7;0,4;
22.05.2023;09:00;72,3;<7;26;46;20;<10;21,4;2,0;287
22.05.2023;10:00;69,7;8;25;51;20;22;22,6;3,3;286
22.05.2023;11:00;70,2;<7;12;55;21;<10;22,6;3,4;261
22.05.2023;12:00;69,2;<7;12;57;21;<10;22,7;3,5;247
22.05.2023;13:00;65,7;<7;16;66;22;<10;23,5;2,9;249
22.05.2023;14:00;63,5;<7;<10;86;22;<10;24,7;2,9;272
22.05.2023;15:00;60,5;<7;<10;102;23;<10;25,4;2,6;280
22.05.2023;16:00;59,3;<7;<10;107;23;<10;25,4;3,1;270
22.05.2023;17:00;57,9;<7;13;104;23;<10;24,8;3,8;261
22.05.2023;18:00;68,4;<7;14;99;24;<10;22,5;4,7;310
22.05.2023;19:00;87,4;<7;<10;80;23;<10;19,0;2,2;311
22.05.2023;20:00;90,4;;;66;23;<10;18,8;1,3;287
22.05.2023;21:00;87,9;<7;<10;65;23;<10;18,4;1,8;312
22.05.2023;22:00;90,3;<7;<10;57;23;<10;16,7;1,6;294
22.05.2023;23:00;90,2;<7;<10;60;22;<10;15,8;2,2;296
22.05.2023;24:00;88,2;<7;<10;71;22;<10;15,3;2,2;303
23.05.2023;01:00;89,5;<7;<10;78;22;<10;14,8;2,5;294
23.05.2023;02:00;86,3;<7;<10;;22;<10;14,8;3,2;301
23.05.2023;03:00;85,9;<7;<10;;21;11;14,8;2,7;288
23.05.2023;04:00;86,0;<7;<10;;21;<10;14,8;3,1;296
23.05.2023;05:00;85,0;<7;<10;;20;<10;14,5;3,7;314
23.05.2023;06:00;87,4;<7;<10;;20;<10;14,3;3,1;303
23.05.2023;07:00;86,7;<7;<10;82;20;<10;14,3;3,7;313
23.05.2023;08:00;83,5;<7;<10;81;20;<10;14,5;4,1;325
23.05.2023;09:00;82,2;<7;<10;74;19;<10;14,3;4,5;327
23.05.2023;10:00;85,3;<7;<10;62;18;<10;13,2;4,9;321
23.05.2023;11:00;82,9;<7;<10;64;18;<10;13,0;4,7;324
23.05.2023;12:00;74,0;<7;<10;70;17;<10;13,8;4,0;335
23.05.2023;13:00;68,9;<7;<10;67;16;<10;14,4;4,6;329
23.05.2023;14:00;57,1;<7;<10;73;15;<10;16,3;4,4;333
23.05.2023;15:00;52,2;<7;<10;75;15;<10;16,9;4,1;332
23.05.2023;16:00;48,6;<7;<10;81;14;<10;17,1;4,4;335
23.05.2023;17:00;50,4;<7;<10;78;14;<10;16,3;4,7;334
23.05.2023;18:00;50,0;<7;<10;80;13;<10;16,1;4,9;333
23.05.2023;19:00;51,3;<7;<10;75;13;<10;15,4;4,7;334
23.05.2023;20:00;53,2;<7;<10;74;12;<10;14,3;3,9;330
23.05.2023;21:00;57,3;;;73;12;<10;12,9;3,7;332
23.05.2023;22:00;62,0;<7;<10;71;12;<10;11,6;3,0;335
23.05.2023;23:00;65,2;<7;<10;63;12;<10;10,5;2,2;347
23.05.2023;24:00;74,5;<7;<10;54;12;<10;8,5;1,4;341
24.05.2023;01:00;77,7;<7;<10;50;12;<10;7,6;1,5;337
24.05.2023;02:00;85,4;<7;10;38;12;<10;6,3;1,3;313
24.05.2023;03:00;90,3;<7;<10;29;12;<10;5,4;0,8;319
24.05.2023;04:00;92,4;<7;<10;20;12;<10;4,7;0,9;326
24.05.2023;05:00;93,1;<7;12;21;12;<10;4,8;1,5;314
24.05.2023;06:00;91,0;<7;16;23;12;<10;5,9;0,5;
24.05.2023;07:00;80,1;<7;16;;13;<10;9,3;1,3;300
24.05.2023;08:00;74,7;<7;10;55;13;<10;10,8;2,3;327
24.05.2023;09:00;68,5;<7;<10;63;13;<10;12,1;3,5;334
24.05.2023;10:00;64,3;<7;<10;67;13;<10;12,6;3,3;344
24.05.2023;11:00;59,4;<7;<10;70;13;<10;13,6;2,6;355
24.05.2023;12:00;57,7;<7;<10;72;13;<10;13,7;2,6;349
24.05.2023;13:00;58,1;<7;<10;72;14;<10;13,9;3,0;341
24.05.2023;14:00;56,0;<7;<10;75;13;<10;14,7;3,2;348
24.05.2023;15:00;56,9;<7;<10;74;13;<10;15,0;2,3;11
24.05.2023;16:00;58,1;<7;11;68;13;<10;14,7;2,4;30
24.05.2023;17:00;59,0;<7;<10;71;14;<10;14,8;1,8;63
24.05.2023;18:00;59,2;<7;<10;70;14;<10;15,0;1,3;82
24.05.2023;19:00;58,8;<7;<10;71;14;<10;15,2;1,6;60
24.05.2023;20:00;59,6;<7;12;67;14;<10;15,1;1,2;26
24.05.2023;21:00;65,6;<7;15;55;14;<10;14,0;1,1;52
24.05.2023;22:00;78,4;;;36;14;<10;11,8;1,1;4
24.05.2023;23:00;82,1;<7;22;25;14;<10;11,1;0,7;21
24.05.2023;24:00;87,0;<7;20;18;14;<10;9,9;0,9;
25.05.2023;01:00;88,8;<7;16;23;14;<10;9,2;1,1;357
25.05.2023;02:00;88,3;<7;12;31;14;<10;9,3;1,1;25
25.05.2023;03:00;90,5;<7;10;31;14;<10;8,4;1,5;351
25.05.2023;04:00;91,6;<7;16;26;14;<10;7,9;1,3;328
25.05.2023;05:00;93,8;<7;18;14;14;<10;7,0;1,1;343
25.05.2023;06:00;91,3;<7;29;16;14;<10;8,1;0,9;
25.05.2023;07:00;81,8;<7;23;35;14;<10;10,5;2,2;29
25.05.2023;08:00;71,8;<7;<10;57;14;<10;12,9;2,4;51
25.05.2023;09:00;69,3;<7;<10;63;13;<10;13,6;2,4;26
25.05.2023;10:00;68,2;<7;<10;63;13;<10;13,8;2,8;35
25.05.2023;11:00;67,6;<7;<10;68;13;<10;13,9;3,3;42
25.05.2023;12:00;66,0;<7;<10;69;13;<10;14,5;3,5;39
25.05.2023;13:00;62,7;<7;<10;71;13;<10;15,6;3,0;40
25.05.2023;14:00;57,2;<7;<10;77;13;<10;17,0;3,3;57
25.05.2023;15:00;53,7;<7;<10;79;13;<10;17,7;3,3;55
25.05.2023;16:00;51,3;<7;<10;84;13;<10;18,3;3,3;46
25.05.2023;17:00;50,3;<7;<10;86;12;<10;18,4;3,7;35
25.05.2023;18:00;51,5;<7;<10;83;12;<10;18,0;3,1;29
25.05.2023;19:00;51,1;<7;<10;83;12;<10;18,3;2,6;51
25.05.2023;20:00;53,1;<7;<10;86;12;<10;17,4;2,1;47
25.05.2023;21:00;60,9;<7;12;69;12;<10;15,5;1,5;23
25.05.2023;22:00;63,7;<7;10;70;13;<10;14,5;;
25.05.2023;23:00;66,7;;;;13;<10;13,3;3,2;4
25.05.2023;24:00;67,3;<7;<10;72;13;<10;12,5;3,1;30
26.05.2023;01:00;71,1;<7;<10;71;14;<10;11,3;2,6;30
26.05.2023;02:00;74,5;<7;<10;68;14;<10;10,2;2,6;32
26.05.2023;03:00;79,7;<7;<10;62;14;<10;9,1;2,0;32
26.05.2023;04:00;83,2;<7;<10;60;15;<10;8,5;2,1;27
26.05.2023;05:00;82,4;<7;<10;62;15;<10;8,7;2,7;27
26.05.2023;06:00;82,6;<7;<10;55;15;<10;8,7;2,7;29
26.05.2023;07:00;79,0;<7;<10;55;16;<10;9,6;3,0;38
26.05.2023;08:00;70,1;<7;<10;63;16;<10;11,4;3,4;58
26.05.2023;09:00;63,7;<7;<10;62;17;<10;13,0;3,4;43
26.05.2023;10:00;60,7;<7;<10;61;17;<10;14,3;3,4;41
26.05.2023;11:00;58,0;<7;<10;64;17;<10;15,7;3,2;30
26.05.2023;12:00;55,2;<7;<10;69;18;<10;16,8;3,3;31
26.05.2023;13:00;50,1;<7;<10;74;18;<10;17,7;3,8;18
26.05.2023;14:00;41,5;<7;<10;83;18;<10;18,6;4,0;31
26.05.2023;15:00;37,2;<7;<10;88;18;<10;19,3;4,3;29